Hourly Data Report for October 13, 2015

All times are specified in Local Standard Time (LST). Add 1 hour to adjust for Daylight Saving Time where and when it is observed.

OTTAWA INTL A
ONTARIO

45°19'00.000" N
75°40'00.000" W
114.90 m
6106001
71628
YOW

Download Data

Hourly Data (October 2015)
Hourly Data Report for October 13, 2015
Temp Definition
°C
Dew Point Temp Definition
°C
Rel Hum Definition
%
Wind Dir Definition
10's deg

Wind Spd Definition
km/h
Visibility Definition
km
Stn Press Definition
kPa
Hmdx Definition


Wind Chill Definition


Weather Definition


TIME
00:00 Legend Double Dagger 14.6 7.0 60 17 13 24.1 98.52     LegendNANA
01:00 Legend Double Dagger 14.8 6.9 59 17 12 24.1 98.47     Mostly Cloudy
02:00 Legend Double Dagger 13.5 6.9 64 16 8 24.1 98.39     LegendNANA
03:00 Legend Double Dagger 13.7 7.3 65 17 8 24.1 98.33     LegendNANA
04:00 Legend Double Dagger 13.9 8.2 68 16 10 24.1 98.27     Cloudy
05:00 Legend Double Dagger 14.5 8.5 67 18 11 24.1 98.24     LegendNANA
06:00 Legend Double Dagger 14.3 8.5 68 18 11 24.1 98.20     LegendNANA
07:00 Legend Double Dagger 12.5 10.8 89 20 15 4.0 98.22     Rain,Fog
08:00 Legend Double Dagger 12.0 11.1 94 17 12 16.1 98.22     Rain
09:00 Legend Double Dagger 12.4 11.8 96 18 16 9.7 98.18     Rain,Fog
10:00 Legend Double Dagger 13.0 12.4 96 16 21 9.7 98.14     Rain,Fog
11:00 Legend Double Dagger 13.7 12.9 95 17 20 12.9 98.11     Rain
12:00 Legend Double Dagger 14.6 13.7 94 18 18 16.1 98.04     LegendNANA
13:00 Legend Double Dagger 15.9 13.8 87 18 19 16.1 97.99     Mostly Cloudy
14:00 Legend Double Dagger 16.8 15.2 90 20 10 24.1 97.94     LegendNANA
15:00 Legend Double Dagger 16.3 11.5 73 22 18 24.1 98.00     LegendNANA
16:00 Legend Double Dagger 16.4 7.7 56 23 17 24.1 98.03     Clear
17:00 Legend Double Dagger 14.4 7.0 61 22 14 24.1 98.04     LegendNANA
18:00 Legend Double Dagger 13.8 7.6 66 20 18 24.1 98.07     LegendNANA
19:00 Legend Double Dagger 14.3 8.3 67 23 28 24.1 98.11     Mostly Cloudy
20:00 Legend Double Dagger 13.2 9.5 78 22 30 24.1 98.14     LegendNANA
21:00 Legend Double Dagger 13.4 10.1 80 22 32 24.1 98.16     Rain
22:00 Legend Double Dagger 13.3 10.1 81 23 29 24.1 98.21     Cloudy
23:00 Legend Double Dagger 13.1 10.3 83 23 23 24.1 98.25     LegendNANA

Notes on Data Quality.

Legend

  • E = Estimated
  • M = Missing
  • NA = Not Available
  • ‡ = Partner data that is not subject to review by the National Climate Archives
Date modified: